<?xml version="1.0" encoding="UTF-8" standalone="no" ?>
<gpx xmlns="http://www.topografix.com/GPX/1/1" xmlns:xsi="http://www.w3.org/2001/XMLSchema-instance" xsi:schemaLocation="http://www.topografix.com/GPX/1/1 http://www.topografix.com/GPX/1/1/gpx.xsd" version="1.1" creator="VisuGPX - https://www.visugpx.com">
  <metadata>
    <name>Boucle Malhassole,Hailla, Pène Lounque Ballonque, Arizes Tramazaygues, Malhassole </name>
    <desc><![CDATA[grp_trc:]]></desc>
  </metadata>
  <trk>
    <name><![CDATA[Boucle Malhassole Hailla, Pène Lounque, Ballonque, Arizes, Tramazaygues, Malhassole ]]></name>
    <cmt><![CDATA[14:25:30]]></cmt>
    <desc><![CDATA[comment ...]]></desc>
    <trkseg>
      <trkpt lat="42.94166" lon="0.21578">
        <ele>1086</ele>
        <time>2025-01-26T13:25:30Z</time>
      </trkpt>
      <trkpt lat="42.94169" lon="0.21576">
        <ele>1088.2</ele>
        <time>2025-01-26T13:25:30Z</time>
      </trkpt>
      <trkpt lat="42.94192" lon="0.21591">
        <ele>1093.5</ele>
        <time>2025-01-26T13:25:30Z</time>
      </trkpt>
      <trkpt lat="42.94199" lon="0.21588">
        <ele>1098.8</ele>
        <time>2025-01-26T13:25:30Z</time>
      </trkpt>
      <trkpt lat="42.94197" lon="0.21565">
        <ele>1107.4</ele>
        <time>2025-01-26T13:25:30Z</time>
      </trkpt>
      <trkpt lat="42.94194" lon="0.21554">
        <ele>1110.4</ele>
        <time>2025-01-26T13:25:30Z</time>
      </trkpt>
      <trkpt lat="42.94191" lon="0.2153">
        <ele>1118.9</ele>
        <time>2025-01-26T13:25:30Z</time>
      </trkpt>
      <trkpt lat="42.94144" lon="0.21458">
        <ele>1120.6</ele>
        <time>2025-01-26T13:25:30Z</time>
      </trkpt>
      <trkpt lat="42.94151" lon="0.21452">
        <ele>1126.3</ele>
        <time>2025-01-26T13:25:30Z</time>
      </trkpt>
      <trkpt lat="42.94253" lon="0.21568">
        <ele>1137.7</ele>
        <time>2025-01-26T13:25:30Z</time>
      </trkpt>
      <trkpt lat="42.94257" lon="0.21543">
        <ele>1149.4</ele>
        <time>2025-01-26T13:25:30Z</time>
      </trkpt>
      <trkpt lat="42.94232" lon="0.21506">
        <ele>1150.3</ele>
        <time>2025-01-26T13:25:30Z</time>
      </trkpt>
      <trkpt lat="42.942" lon="0.21375">
        <ele>1183.8</ele>
        <time>2025-01-26T13:25:30Z</time>
      </trkpt>
      <trkpt lat="42.94212" lon="0.21371">
        <ele>1191.9</ele>
        <time>2025-01-26T13:25:30Z</time>
      </trkpt>
      <trkpt lat="42.94264" lon="0.21396">
        <ele>1209.5</ele>
        <time>2025-01-26T13:25:30Z</time>
      </trkpt>
      <trkpt lat="42.94313" lon="0.21461">
        <ele>1202.1</ele>
        <time>2025-01-26T13:25:30Z</time>
      </trkpt>
      <trkpt lat="42.9432" lon="0.2146">
        <ele>1205</ele>
        <time>2025-01-26T13:25:30Z</time>
      </trkpt>
      <trkpt lat="42.94321" lon="0.21428">
        <ele>1219.3</ele>
        <time>2025-01-26T13:25:30Z</time>
      </trkpt>
      <trkpt lat="42.94327" lon="0.21419">
        <ele>1225.4</ele>
        <time>2025-01-26T13:25:30Z</time>
      </trkpt>
      <trkpt lat="42.94359" lon="0.21445">
        <ele>1224.1</ele>
        <time>2025-01-26T13:25:30Z</time>
      </trkpt>
      <trkpt lat="42.94367" lon="0.21447">
        <ele>1225.8</ele>
        <time>2025-01-26T13:25:30Z</time>
      </trkpt>
      <trkpt lat="42.9437" lon="0.21432">
        <ele>1233.5</ele>
        <time>2025-01-26T13:25:30Z</time>
      </trkpt>
      <trkpt lat="42.94351" lon="0.21393">
        <ele>1246.7</ele>
        <time>2025-01-26T13:25:30Z</time>
      </trkpt>
      <trkpt lat="42.94356" lon="0.2138">
        <ele>1254.6</ele>
        <time>2025-01-26T13:25:30Z</time>
      </trkpt>
      <trkpt lat="42.94372" lon="0.21386">
        <ele>1257.2</ele>
        <time>2025-01-26T13:25:30Z</time>
      </trkpt>
      <trkpt lat="42.9442" lon="0.21432">
        <ele>1245.7</ele>
        <time>2025-01-26T13:25:30Z</time>
      </trkpt>
      <trkpt lat="42.94539" lon="0.2147">
        <ele>1249.8</ele>
        <time>2025-01-26T13:25:30Z</time>
      </trkpt>
      <trkpt lat="42.94621" lon="0.21444">
        <ele>1267.4</ele>
        <time>2025-01-26T13:25:30Z</time>
      </trkpt>
      <trkpt lat="42.9465" lon="0.21428">
        <ele>1272.1</ele>
        <time>2025-01-26T13:25:30Z</time>
      </trkpt>
      <trkpt lat="42.94668" lon="0.21408">
        <ele>1278.1</ele>
        <time>2025-01-26T13:25:30Z</time>
      </trkpt>
      <trkpt lat="42.94678" lon="0.21387">
        <ele>1284.7</ele>
        <time>2025-01-26T13:25:30Z</time>
      </trkpt>
      <trkpt lat="42.94683" lon="0.2137">
        <ele>1290.3</ele>
        <time>2025-01-26T13:25:30Z</time>
      </trkpt>
      <trkpt lat="42.94688" lon="0.2136">
        <ele>1292.8</ele>
        <time>2025-01-26T13:25:30Z</time>
      </trkpt>
      <trkpt lat="42.94744" lon="0.21327">
        <ele>1295</ele>
        <time>2025-01-26T13:25:30Z</time>
      </trkpt>
      <trkpt lat="42.94785" lon="0.21316">
        <ele>1289.2</ele>
        <time>2025-01-26T13:25:30Z</time>
      </trkpt>
      <trkpt lat="42.94802" lon="0.21297">
        <ele>1293.9</ele>
        <time>2025-01-26T13:25:30Z</time>
      </trkpt>
      <trkpt lat="42.94815" lon="0.21272">
        <ele>1301.9</ele>
        <time>2025-01-26T13:25:30Z</time>
      </trkpt>
      <trkpt lat="42.94824" lon="0.21266">
        <ele>1307.4</ele>
        <time>2025-01-26T13:25:30Z</time>
      </trkpt>
      <trkpt lat="42.9483" lon="0.21282">
        <ele>1308.7</ele>
        <time>2025-01-26T13:25:30Z</time>
      </trkpt>
      <trkpt lat="42.94837" lon="0.21316">
        <ele>1310.8</ele>
        <time>2025-01-26T13:25:30Z</time>
      </trkpt>
      <trkpt lat="42.94836" lon="0.21316">
        <ele>1310.6</ele>
        <time>2025-01-26T13:25:30Z</time>
      </trkpt>
      <trkpt lat="42.94849" lon="0.21347">
        <ele>1310.7</ele>
        <time>2025-01-26T13:25:30Z</time>
      </trkpt>
      <trkpt lat="42.94854" lon="0.2133">
        <ele>1314.7</ele>
        <time>2025-01-26T13:25:30Z</time>
      </trkpt>
      <trkpt lat="42.9486" lon="0.21298">
        <ele>1321.4</ele>
        <time>2025-01-26T13:25:30Z</time>
      </trkpt>
      <trkpt lat="42.9488" lon="0.21212">
        <ele>1337.9</ele>
        <time>2025-01-26T13:25:30Z</time>
      </trkpt>
      <trkpt lat="42.94896" lon="0.21128">
        <ele>1357.8</ele>
        <time>2025-01-26T13:25:30Z</time>
      </trkpt>
      <trkpt lat="42.94904" lon="0.21111">
        <ele>1363.4</ele>
        <time>2025-01-26T13:25:30Z</time>
      </trkpt>
      <trkpt lat="42.94918" lon="0.21053">
        <ele>1376</ele>
        <time>2025-01-26T13:25:30Z</time>
      </trkpt>
      <trkpt lat="42.94927" lon="0.21024">
        <ele>1382.9</ele>
        <time>2025-01-26T13:25:30Z</time>
      </trkpt>
      <trkpt lat="42.94936" lon="0.20987">
        <ele>1391.7</ele>
        <time>2025-01-26T13:25:30Z</time>
      </trkpt>
      <trkpt lat="42.95021" lon="0.20836">
        <ele>1436.1</ele>
        <time>2025-01-26T13:25:30Z</time>
      </trkpt>
      <trkpt lat="42.95033" lon="0.20827">
        <ele>1440</ele>
        <time>2025-01-26T13:25:30Z</time>
      </trkpt>
      <trkpt lat="42.95055" lon="0.2082">
        <ele>1445.2</ele>
        <time>2025-01-26T13:25:30Z</time>
      </trkpt>
      <trkpt lat="42.95069" lon="0.20813">
        <ele>1446.4</ele>
        <time>2025-01-26T13:25:30Z</time>
      </trkpt>
      <trkpt lat="42.95103" lon="0.20778">
        <ele>1450</ele>
        <time>2025-01-26T13:25:30Z</time>
      </trkpt>
      <trkpt lat="42.95106" lon="0.20752">
        <ele>1452.9</ele>
        <time>2025-01-26T13:25:30Z</time>
      </trkpt>
      <trkpt lat="42.95106" lon="0.20733">
        <ele>1455.1</ele>
        <time>2025-01-26T13:25:30Z</time>
      </trkpt>
      <trkpt lat="42.95112" lon="0.20704">
        <ele>1459.3</ele>
        <time>2025-01-26T13:25:30Z</time>
      </trkpt>
      <trkpt lat="42.9511" lon="0.20684">
        <ele>1463</ele>
        <time>2025-01-26T13:25:30Z</time>
      </trkpt>
      <trkpt lat="42.95118" lon="0.20663">
        <ele>1467</ele>
        <time>2025-01-26T13:25:30Z</time>
      </trkpt>
      <trkpt lat="42.95118" lon="0.2064">
        <ele>1472.1</ele>
        <time>2025-01-26T13:25:30Z</time>
      </trkpt>
      <trkpt lat="42.95121" lon="0.20614">
        <ele>1477.8</ele>
        <time>2025-01-26T13:25:30Z</time>
      </trkpt>
      <trkpt lat="42.95128" lon="0.20601">
        <ele>1479.9</ele>
        <time>2025-01-26T13:25:30Z</time>
      </trkpt>
      <trkpt lat="42.95149" lon="0.20567">
        <ele>1485.1</ele>
        <time>2025-01-26T13:25:30Z</time>
      </trkpt>
      <trkpt lat="42.95157" lon="0.20548">
        <ele>1487.2</ele>
        <time>2025-01-26T13:25:30Z</time>
      </trkpt>
      <trkpt lat="42.9517" lon="0.20542">
        <ele>1488.5</ele>
        <time>2025-01-26T13:25:30Z</time>
      </trkpt>
      <trkpt lat="42.95197" lon="0.20512">
        <ele>1493.9</ele>
        <time>2025-01-26T13:25:30Z</time>
      </trkpt>
      <trkpt lat="42.9521" lon="0.20509">
        <ele>1496.2</ele>
        <time>2025-01-26T13:25:30Z</time>
      </trkpt>
      <trkpt lat="42.95241" lon="0.2049">
        <ele>1501.6</ele>
        <time>2025-01-26T13:25:30Z</time>
      </trkpt>
      <trkpt lat="42.95241" lon="0.20472">
        <ele>1504</ele>
        <time>2025-01-26T13:25:30Z</time>
      </trkpt>
      <trkpt lat="42.95249" lon="0.20454">
        <ele>1509.5</ele>
        <time>2025-01-26T13:25:30Z</time>
      </trkpt>
      <trkpt lat="42.95255" lon="0.20389">
        <ele>1525.7</ele>
        <time>2025-01-26T13:25:30Z</time>
      </trkpt>
      <trkpt lat="42.9526" lon="0.20362">
        <ele>1531.5</ele>
        <time>2025-01-26T13:25:30Z</time>
      </trkpt>
      <trkpt lat="42.95264" lon="0.20336">
        <ele>1536.9</ele>
        <time>2025-01-26T13:25:30Z</time>
      </trkpt>
      <trkpt lat="42.95264" lon="0.20303">
        <ele>1544</ele>
        <time>2025-01-26T13:25:30Z</time>
      </trkpt>
      <trkpt lat="42.95264" lon="0.20275">
        <ele>1549.1</ele>
        <time>2025-01-26T13:25:30Z</time>
      </trkpt>
      <trkpt lat="42.95263" lon="0.20255">
        <ele>1552.5</ele>
        <time>2025-01-26T13:25:30Z</time>
      </trkpt>
      <trkpt lat="42.95263" lon="0.20254">
        <ele>1552.7</ele>
        <time>2025-01-26T13:25:30Z</time>
      </trkpt>
      <trkpt lat="42.95266" lon="0.20234">
        <ele>1556.2</ele>
        <time>2025-01-26T13:25:30Z</time>
      </trkpt>
      <trkpt lat="42.9527" lon="0.20213">
        <ele>1559.3</ele>
        <time>2025-01-26T13:25:30Z</time>
      </trkpt>
      <trkpt lat="42.95276" lon="0.20187">
        <ele>1562.3</ele>
        <time>2025-01-26T13:25:30Z</time>
      </trkpt>
      <trkpt lat="42.95279" lon="0.20162">
        <ele>1564.6</ele>
        <time>2025-01-26T13:25:30Z</time>
      </trkpt>
      <trkpt lat="42.95285" lon="0.20131">
        <ele>1567.8</ele>
        <time>2025-01-26T13:25:30Z</time>
      </trkpt>
      <trkpt lat="42.95288" lon="0.20114">
        <ele>1569.6</ele>
        <time>2025-01-26T13:25:30Z</time>
      </trkpt>
      <trkpt lat="42.95294" lon="0.20095">
        <ele>1572.1</ele>
        <time>2025-01-26T13:25:30Z</time>
      </trkpt>
      <trkpt lat="42.95308" lon="0.20083">
        <ele>1575.6</ele>
        <time>2025-01-26T13:25:30Z</time>
      </trkpt>
      <trkpt lat="42.95322" lon="0.20072">
        <ele>1579</ele>
        <time>2025-01-26T13:25:30Z</time>
      </trkpt>
      <trkpt lat="42.95336" lon="0.20043">
        <ele>1583.5</ele>
        <time>2025-01-26T13:25:30Z</time>
      </trkpt>
      <trkpt lat="42.9534" lon="0.20029">
        <ele>1585.7</ele>
        <time>2025-01-26T13:25:30Z</time>
      </trkpt>
      <trkpt lat="42.9535" lon="0.20003">
        <ele>1591.2</ele>
        <time>2025-01-26T13:25:30Z</time>
      </trkpt>
      <trkpt lat="42.95359" lon="0.19989">
        <ele>1594.7</ele>
        <time>2025-01-26T13:25:30Z</time>
      </trkpt>
      <trkpt lat="42.95371" lon="0.19972">
        <ele>1601.3</ele>
        <time>2025-01-26T13:25:30Z</time>
      </trkpt>
      <trkpt lat="42.95385" lon="0.19952">
        <ele>1608.1</ele>
        <time>2025-01-26T13:25:30Z</time>
      </trkpt>
      <trkpt lat="42.95392" lon="0.19934">
        <ele>1611.9</ele>
        <time>2025-01-26T13:25:30Z</time>
      </trkpt>
      <trkpt lat="42.95393" lon="0.19914">
        <ele>1613.5</ele>
        <time>2025-01-26T13:25:30Z</time>
      </trkpt>
      <trkpt lat="42.9539" lon="0.19885">
        <ele>1618.1</ele>
        <time>2025-01-26T13:25:30Z</time>
      </trkpt>
      <trkpt lat="42.95386" lon="0.19873">
        <ele>1620.9</ele>
        <time>2025-01-26T13:25:30Z</time>
      </trkpt>
      <trkpt lat="42.95379" lon="0.19857">
        <ele>1624.3</ele>
        <time>2025-01-26T13:25:30Z</time>
      </trkpt>
      <trkpt lat="42.95373" lon="0.19847">
        <ele>1625.9</ele>
        <time>2025-01-26T13:25:30Z</time>
      </trkpt>
      <trkpt lat="42.95366" lon="0.19844">
        <ele>1626.2</ele>
        <time>2025-01-26T13:25:30Z</time>
      </trkpt>
      <trkpt lat="42.95354" lon="0.19837">
        <ele>1627.2</ele>
        <time>2025-01-26T13:25:30Z</time>
      </trkpt>
      <trkpt lat="42.95342" lon="0.19834">
        <ele>1627.3</ele>
        <time>2025-01-26T13:25:30Z</time>
      </trkpt>
      <trkpt lat="42.95344" lon="0.19843">
        <ele>1625.9</ele>
        <time>2025-01-26T13:25:30Z</time>
      </trkpt>
      <trkpt lat="42.95343" lon="0.19852">
        <ele>1624.4</ele>
        <time>2025-01-26T13:25:30Z</time>
      </trkpt>
      <trkpt lat="42.95341" lon="0.19856">
        <ele>1623.8</ele>
        <time>2025-01-26T13:25:30Z</time>
      </trkpt>
      <trkpt lat="42.95338" lon="0.19856">
        <ele>1623.7</ele>
        <time>2025-01-26T13:25:30Z</time>
      </trkpt>
      <trkpt lat="42.95331" lon="0.19847">
        <ele>1624.8</ele>
        <time>2025-01-26T13:25:30Z</time>
      </trkpt>
      <trkpt lat="42.95326" lon="0.19839">
        <ele>1625.4</ele>
        <time>2025-01-26T13:25:30Z</time>
      </trkpt>
      <trkpt lat="42.95329" lon="0.19833">
        <ele>1626.7</ele>
        <time>2025-01-26T13:25:30Z</time>
      </trkpt>
      <trkpt lat="42.95333" lon="0.19832">
        <ele>1627.2</ele>
        <time>2025-01-26T13:25:30Z</time>
      </trkpt>
      <trkpt lat="42.95333" lon="0.19825">
        <ele>1628.7</ele>
        <time>2025-01-26T13:25:30Z</time>
      </trkpt>
      <trkpt lat="42.95329" lon="0.19818">
        <ele>1629.8</ele>
        <time>2025-01-26T13:25:30Z</time>
      </trkpt>
      <trkpt lat="42.95337" lon="0.19822">
        <ele>1629.6</ele>
        <time>2025-01-26T13:25:30Z</time>
      </trkpt>
      <trkpt lat="42.95345" lon="0.19827">
        <ele>1628.8</ele>
        <time>2025-01-26T13:25:30Z</time>
      </trkpt>
      <trkpt lat="42.95351" lon="0.19827">
        <ele>1629.1</ele>
        <time>2025-01-26T13:25:30Z</time>
      </trkpt>
      <trkpt lat="42.95362" lon="0.19818">
        <ele>1631.8</ele>
        <time>2025-01-26T13:25:30Z</time>
      </trkpt>
      <trkpt lat="42.9537" lon="0.19816">
        <ele>1632.5</ele>
        <time>2025-01-26T13:25:30Z</time>
      </trkpt>
      <trkpt lat="42.95375" lon="0.19808">
        <ele>1634.5</ele>
        <time>2025-01-26T13:25:30Z</time>
      </trkpt>
      <trkpt lat="42.95376" lon="0.19805">
        <ele>1635.2</ele>
        <time>2025-01-26T13:25:30Z</time>
      </trkpt>
      <trkpt lat="42.95373" lon="0.19794">
        <ele>1638.1</ele>
        <time>2025-01-26T13:25:30Z</time>
      </trkpt>
      <trkpt lat="42.95369" lon="0.19788">
        <ele>1639.8</ele>
        <time>2025-01-26T13:25:30Z</time>
      </trkpt>
      <trkpt lat="42.95368" lon="0.19775">
        <ele>1643.4</ele>
        <time>2025-01-26T13:25:30Z</time>
      </trkpt>
      <trkpt lat="42.95365" lon="0.19761">
        <ele>1646.8</ele>
        <time>2025-01-26T13:25:30Z</time>
      </trkpt>
      <trkpt lat="42.95365" lon="0.19746">
        <ele>1650.9</ele>
        <time>2025-01-26T13:25:30Z</time>
      </trkpt>
      <trkpt lat="42.95364" lon="0.19738">
        <ele>1653.2</ele>
        <time>2025-01-26T13:25:30Z</time>
      </trkpt>
      <trkpt lat="42.95362" lon="0.19726">
        <ele>1656.3</ele>
        <time>2025-01-26T13:25:30Z</time>
      </trkpt>
      <trkpt lat="42.95362" lon="0.19715">
        <ele>1659.1</ele>
        <time>2025-01-26T13:25:30Z</time>
      </trkpt>
      <trkpt lat="42.95362" lon="0.19693">
        <ele>1664.5</ele>
        <time>2025-01-26T13:25:30Z</time>
      </trkpt>
      <trkpt lat="42.95361" lon="0.19681">
        <ele>1666.8</ele>
        <time>2025-01-26T13:25:30Z</time>
      </trkpt>
      <trkpt lat="42.9536" lon="0.19666">
        <ele>1669.6</ele>
        <time>2025-01-26T13:25:30Z</time>
      </trkpt>
      <trkpt lat="42.9536" lon="0.19656">
        <ele>1671.9</ele>
        <time>2025-01-26T13:25:30Z</time>
      </trkpt>
      <trkpt lat="42.9536" lon="0.19639">
        <ele>1675.6</ele>
        <time>2025-01-26T13:25:30Z</time>
      </trkpt>
      <trkpt lat="42.95359" lon="0.19633">
        <ele>1676.9</ele>
        <time>2025-01-26T13:25:30Z</time>
      </trkpt>
      <trkpt lat="42.95357" lon="0.19622">
        <ele>1678.7</ele>
        <time>2025-01-26T13:25:30Z</time>
      </trkpt>
      <trkpt lat="42.95355" lon="0.19616">
        <ele>1679.9</ele>
        <time>2025-01-26T13:25:30Z</time>
      </trkpt>
      <trkpt lat="42.95356" lon="0.1961">
        <ele>1681.7</ele>
        <time>2025-01-26T13:25:30Z</time>
      </trkpt>
      <trkpt lat="42.95357" lon="0.19603">
        <ele>1684</ele>
        <time>2025-01-26T13:25:30Z</time>
      </trkpt>
      <trkpt lat="42.95351" lon="0.19597">
        <ele>1683.9</ele>
        <time>2025-01-26T13:25:30Z</time>
      </trkpt>
      <trkpt lat="42.95347" lon="0.19589">
        <ele>1685.4</ele>
        <time>2025-01-26T13:25:30Z</time>
      </trkpt>
      <trkpt lat="42.95342" lon="0.19577">
        <ele>1688.1</ele>
        <time>2025-01-26T13:25:30Z</time>
      </trkpt>
      <trkpt lat="42.95336" lon="0.19567">
        <ele>1691.5</ele>
        <time>2025-01-26T13:25:30Z</time>
      </trkpt>
      <trkpt lat="42.95331" lon="0.19561">
        <ele>1693.1</ele>
        <time>2025-01-26T13:25:30Z</time>
      </trkpt>
      <trkpt lat="42.95324" lon="0.19554">
        <ele>1694.7</ele>
        <time>2025-01-26T13:25:30Z</time>
      </trkpt>
      <trkpt lat="42.9532" lon="0.19545">
        <ele>1698.8</ele>
        <time>2025-01-26T13:25:30Z</time>
      </trkpt>
      <trkpt lat="42.95313" lon="0.19537">
        <ele>1701.2</ele>
        <time>2025-01-26T13:25:30Z</time>
      </trkpt>
      <trkpt lat="42.95311" lon="0.19527">
        <ele>1705.8</ele>
        <time>2025-01-26T13:25:30Z</time>
      </trkpt>
      <trkpt lat="42.95304" lon="0.19519">
        <ele>1708.7</ele>
        <time>2025-01-26T13:25:30Z</time>
      </trkpt>
      <trkpt lat="42.95299" lon="0.19515">
        <ele>1710.8</ele>
        <time>2025-01-26T13:25:30Z</time>
      </trkpt>
      <trkpt lat="42.95294" lon="0.1951">
        <ele>1712.3</ele>
        <time>2025-01-26T13:25:30Z</time>
      </trkpt>
      <trkpt lat="42.95287" lon="0.19504">
        <ele>1714.8</ele>
        <time>2025-01-26T13:25:30Z</time>
      </trkpt>
      <trkpt lat="42.9528" lon="0.19499">
        <ele>1716</ele>
        <time>2025-01-26T13:25:30Z</time>
      </trkpt>
      <trkpt lat="42.95271" lon="0.19495">
        <ele>1716.7</ele>
        <time>2025-01-26T13:25:30Z</time>
      </trkpt>
      <trkpt lat="42.95265" lon="0.19492">
        <ele>1717.6</ele>
        <time>2025-01-26T13:25:30Z</time>
      </trkpt>
      <trkpt lat="42.95257" lon="0.19484">
        <ele>1719.6</ele>
        <time>2025-01-26T13:25:30Z</time>
      </trkpt>
      <trkpt lat="42.95254" lon="0.19471">
        <ele>1724.1</ele>
        <time>2025-01-26T13:25:30Z</time>
      </trkpt>
      <trkpt lat="42.95252" lon="0.19465">
        <ele>1724.9</ele>
        <time>2025-01-26T13:25:30Z</time>
      </trkpt>
      <trkpt lat="42.95251" lon="0.19458">
        <ele>1725.7</ele>
        <time>2025-01-26T13:25:30Z</time>
      </trkpt>
      <trkpt lat="42.95251" lon="0.19454">
        <ele>1726.8</ele>
        <time>2025-01-26T13:25:30Z</time>
      </trkpt>
      <trkpt lat="42.95255" lon="0.19443">
        <ele>1730.6</ele>
        <time>2025-01-26T13:25:30Z</time>
      </trkpt>
      <trkpt lat="42.95262" lon="0.19441">
        <ele>1734.8</ele>
        <time>2025-01-26T13:25:30Z</time>
      </trkpt>
      <trkpt lat="42.9527" lon="0.19433">
        <ele>1740.4</ele>
        <time>2025-01-26T13:25:30Z</time>
      </trkpt>
      <trkpt lat="42.95276" lon="0.19425">
        <ele>1745.1</ele>
        <time>2025-01-26T13:25:30Z</time>
      </trkpt>
      <trkpt lat="42.9528" lon="0.19413">
        <ele>1749.5</ele>
        <time>2025-01-26T13:25:30Z</time>
      </trkpt>
      <trkpt lat="42.95284" lon="0.19391">
        <ele>1755.4</ele>
        <time>2025-01-26T13:25:30Z</time>
      </trkpt>
      <trkpt lat="42.95284" lon="0.19374">
        <ele>1760</ele>
        <time>2025-01-26T13:25:30Z</time>
      </trkpt>
      <trkpt lat="42.95282" lon="0.19371">
        <ele>1760.4</ele>
        <time>2025-01-26T13:25:30Z</time>
      </trkpt>
      <trkpt lat="42.95281" lon="0.1936">
        <ele>1763</ele>
        <time>2025-01-26T13:25:30Z</time>
      </trkpt>
      <trkpt lat="42.95279" lon="0.19348">
        <ele>1766.1</ele>
        <time>2025-01-26T13:25:30Z</time>
      </trkpt>
      <trkpt lat="42.95279" lon="0.19334">
        <ele>1770.2</ele>
        <time>2025-01-26T13:25:30Z</time>
      </trkpt>
      <trkpt lat="42.95278" lon="0.1932">
        <ele>1773.3</ele>
        <time>2025-01-26T13:25:30Z</time>
      </trkpt>
      <trkpt lat="42.95279" lon="0.19311">
        <ele>1776</ele>
        <time>2025-01-26T13:25:30Z</time>
      </trkpt>
      <trkpt lat="42.95281" lon="0.19301">
        <ele>1779.6</ele>
        <time>2025-01-26T13:25:30Z</time>
      </trkpt>
      <trkpt lat="42.95284" lon="0.19287">
        <ele>1785</ele>
        <time>2025-01-26T13:25:30Z</time>
      </trkpt>
      <trkpt lat="42.95285" lon="0.19279">
        <ele>1787.4</ele>
        <time>2025-01-26T13:25:30Z</time>
      </trkpt>
      <trkpt lat="42.95282" lon="0.19268">
        <ele>1789.7</ele>
        <time>2025-01-26T13:25:30Z</time>
      </trkpt>
      <trkpt lat="42.95275" lon="0.19247">
        <ele>1795</ele>
        <time>2025-01-26T13:25:30Z</time>
      </trkpt>
      <trkpt lat="42.95269" lon="0.19227">
        <ele>1800.8</ele>
        <time>2025-01-26T13:25:30Z</time>
      </trkpt>
      <trkpt lat="42.95263" lon="0.19212">
        <ele>1805.1</ele>
        <time>2025-01-26T13:25:30Z</time>
      </trkpt>
      <trkpt lat="42.95254" lon="0.19174">
        <ele>1817.2</ele>
        <time>2025-01-26T13:25:30Z</time>
      </trkpt>
      <trkpt lat="42.95248" lon="0.19146">
        <ele>1827.3</ele>
        <time>2025-01-26T13:25:30Z</time>
      </trkpt>
      <trkpt lat="42.95237" lon="0.19143">
        <ele>1831.6</ele>
        <time>2025-01-26T13:25:30Z</time>
      </trkpt>
      <trkpt lat="42.95233" lon="0.19125">
        <ele>1838.5</ele>
        <time>2025-01-26T13:25:30Z</time>
      </trkpt>
      <trkpt lat="42.95229" lon="0.19106">
        <ele>1845.4</ele>
        <time>2025-01-26T13:25:30Z</time>
      </trkpt>
      <trkpt lat="42.95225" lon="0.19081">
        <ele>1855.9</ele>
        <time>2025-01-26T13:25:30Z</time>
      </trkpt>
      <trkpt lat="42.95222" lon="0.1905">
        <ele>1869.4</ele>
        <time>2025-01-26T13:25:30Z</time>
      </trkpt>
      <trkpt lat="42.95222" lon="0.19031">
        <ele>1876.7</ele>
        <time>2025-01-26T13:25:30Z</time>
      </trkpt>
      <trkpt lat="42.95221" lon="0.19013">
        <ele>1884.5</ele>
        <time>2025-01-26T13:25:30Z</time>
      </trkpt>
      <trkpt lat="42.95228" lon="0.18989">
        <ele>1895.1</ele>
        <time>2025-01-26T13:25:30Z</time>
      </trkpt>
      <trkpt lat="42.9525" lon="0.19001">
        <ele>1892.6</ele>
        <time>2025-01-26T13:25:30Z</time>
      </trkpt>
      <trkpt lat="42.95267" lon="0.19004">
        <ele>1893.6</ele>
        <time>2025-01-26T13:25:30Z</time>
      </trkpt>
      <trkpt lat="42.95289" lon="0.18995">
        <ele>1895.5</ele>
        <time>2025-01-26T13:25:30Z</time>
      </trkpt>
      <trkpt lat="42.95302" lon="0.18996">
        <ele>1893.9</ele>
        <time>2025-01-26T13:25:30Z</time>
      </trkpt>
      <trkpt lat="42.95316" lon="0.18996">
        <ele>1893.6</ele>
        <time>2025-01-26T13:25:30Z</time>
      </trkpt>
      <trkpt lat="42.95329" lon="0.18996">
        <ele>1893.8</ele>
        <time>2025-01-26T13:25:30Z</time>
      </trkpt>
      <trkpt lat="42.95344" lon="0.18985">
        <ele>1896.2</ele>
        <time>2025-01-26T13:25:30Z</time>
      </trkpt>
      <trkpt lat="42.95358" lon="0.18989">
        <ele>1895.3</ele>
        <time>2025-01-26T13:25:30Z</time>
      </trkpt>
      <trkpt lat="42.95384" lon="0.18992">
        <ele>1891.6</ele>
        <time>2025-01-26T13:25:30Z</time>
      </trkpt>
      <trkpt lat="42.95411" lon="0.18988">
        <ele>1893.7</ele>
        <time>2025-01-26T13:25:30Z</time>
      </trkpt>
      <trkpt lat="42.95451" lon="0.19014">
        <ele>1892.2</ele>
        <time>2025-01-26T13:25:30Z</time>
      </trkpt>
      <trkpt lat="42.95466" lon="0.19032">
        <ele>1893.2</ele>
        <time>2025-01-26T13:25:30Z</time>
      </trkpt>
      <trkpt lat="42.95489" lon="0.19054">
        <ele>1894.4</ele>
        <time>2025-01-26T13:25:30Z</time>
      </trkpt>
      <trkpt lat="42.95502" lon="0.19073">
        <ele>1894.7</ele>
        <time>2025-01-26T13:25:30Z</time>
      </trkpt>
      <trkpt lat="42.95514" lon="0.19095">
        <ele>1893.9</ele>
        <time>2025-01-26T13:25:30Z</time>
      </trkpt>
      <trkpt lat="42.95524" lon="0.1912">
        <ele>1892.5</ele>
        <time>2025-01-26T13:25:30Z</time>
      </trkpt>
      <trkpt lat="42.95532" lon="0.1914">
        <ele>1890.3</ele>
        <time>2025-01-26T13:25:30Z</time>
      </trkpt>
      <trkpt lat="42.95538" lon="0.19165">
        <ele>1886.1</ele>
        <time>2025-01-26T13:25:30Z</time>
      </trkpt>
      <trkpt lat="42.95548" lon="0.19186">
        <ele>1885.1</ele>
        <time>2025-01-26T13:25:30Z</time>
      </trkpt>
      <trkpt lat="42.9556" lon="0.19204">
        <ele>1884</ele>
        <time>2025-01-26T13:25:30Z</time>
      </trkpt>
      <trkpt lat="42.9556" lon="0.19222">
        <ele>1882.3</ele>
        <time>2025-01-26T13:25:30Z</time>
      </trkpt>
      <trkpt lat="42.95562" lon="0.19246">
        <ele>1877.5</ele>
        <time>2025-01-26T13:25:30Z</time>
      </trkpt>
      <trkpt lat="42.9557" lon="0.19264">
        <ele>1874.2</ele>
        <time>2025-01-26T13:25:30Z</time>
      </trkpt>
      <trkpt lat="42.95579" lon="0.19282">
        <ele>1871.8</ele>
        <time>2025-01-26T13:25:30Z</time>
      </trkpt>
      <trkpt lat="42.95588" lon="0.19319">
        <ele>1864.6</ele>
        <time>2025-01-26T13:25:30Z</time>
      </trkpt>
      <trkpt lat="42.95636" lon="0.19378">
        <ele>1849.2</ele>
        <time>2025-01-26T13:25:30Z</time>
      </trkpt>
      <trkpt lat="42.95643" lon="0.19396">
        <ele>1845.3</ele>
        <time>2025-01-26T13:25:30Z</time>
      </trkpt>
      <trkpt lat="42.95666" lon="0.19423">
        <ele>1841.5</ele>
        <time>2025-01-26T13:25:30Z</time>
      </trkpt>
      <trkpt lat="42.95688" lon="0.19442">
        <ele>1843.1</ele>
        <time>2025-01-26T13:25:30Z</time>
      </trkpt>
      <trkpt lat="42.95695" lon="0.19458">
        <ele>1844.2</ele>
        <time>2025-01-26T13:25:30Z</time>
      </trkpt>
      <trkpt lat="42.95706" lon="0.19491">
        <ele>1847.5</ele>
        <time>2025-01-26T13:25:30Z</time>
      </trkpt>
      <trkpt lat="42.95713" lon="0.19522">
        <ele>1851.4</ele>
        <time>2025-01-26T13:25:30Z</time>
      </trkpt>
      <trkpt lat="42.95717" lon="0.1954">
        <ele>1853.6</ele>
        <time>2025-01-26T13:25:30Z</time>
      </trkpt>
      <trkpt lat="42.95729" lon="0.19582">
        <ele>1857</ele>
        <time>2025-01-26T13:25:30Z</time>
      </trkpt>
      <trkpt lat="42.95737" lon="0.19601">
        <ele>1857.7</ele>
        <time>2025-01-26T13:25:30Z</time>
      </trkpt>
      <trkpt lat="42.95749" lon="0.19628">
        <ele>1858.7</ele>
        <time>2025-01-26T13:25:30Z</time>
      </trkpt>
      <trkpt lat="42.95762" lon="0.19674">
        <ele>1858.2</ele>
        <time>2025-01-26T13:25:30Z</time>
      </trkpt>
      <trkpt lat="42.95787" lon="0.19734">
        <ele>1863.1</ele>
        <time>2025-01-26T13:25:30Z</time>
      </trkpt>
      <trkpt lat="42.95803" lon="0.19769">
        <ele>1866.4</ele>
        <time>2025-01-26T13:25:30Z</time>
      </trkpt>
      <trkpt lat="42.95834" lon="0.19831">
        <ele>1873.3</ele>
        <time>2025-01-26T13:25:30Z</time>
      </trkpt>
      <trkpt lat="42.95865" lon="0.19859">
        <ele>1878.5</ele>
        <time>2025-01-26T13:25:30Z</time>
      </trkpt>
      <trkpt lat="42.95887" lon="0.19829">
        <ele>1875.5</ele>
        <time>2025-01-26T13:25:30Z</time>
      </trkpt>
      <trkpt lat="42.95883" lon="0.19758">
        <ele>1882</ele>
        <time>2025-01-26T13:25:30Z</time>
      </trkpt>
      <trkpt lat="42.95891" lon="0.19721">
        <ele>1882.2</ele>
        <time>2025-01-26T13:25:30Z</time>
      </trkpt>
      <trkpt lat="42.95895" lon="0.19664">
        <ele>1879.2</ele>
        <time>2025-01-26T13:25:30Z</time>
      </trkpt>
      <trkpt lat="42.9587" lon="0.19618">
        <ele>1885.3</ele>
        <time>2025-01-26T13:25:30Z</time>
      </trkpt>
      <trkpt lat="42.95845" lon="0.19584">
        <ele>1883.7</ele>
        <time>2025-01-26T13:25:30Z</time>
      </trkpt>
      <trkpt lat="42.95803" lon="0.19561">
        <ele>1877.4</ele>
        <time>2025-01-26T13:25:30Z</time>
      </trkpt>
      <trkpt lat="42.95787" lon="0.1952">
        <ele>1871.3</ele>
        <time>2025-01-26T13:25:30Z</time>
      </trkpt>
      <trkpt lat="42.95771" lon="0.19483">
        <ele>1863.7</ele>
        <time>2025-01-26T13:25:30Z</time>
      </trkpt>
      <trkpt lat="42.95744" lon="0.1944">
        <ele>1850.1</ele>
        <time>2025-01-26T13:25:30Z</time>
      </trkpt>
      <trkpt lat="42.95718" lon="0.19438">
        <ele>1846.6</ele>
        <time>2025-01-26T13:25:30Z</time>
      </trkpt>
      <trkpt lat="42.95702" lon="0.19393">
        <ele>1840.9</ele>
        <time>2025-01-26T13:25:30Z</time>
      </trkpt>
      <trkpt lat="42.95675" lon="0.19359">
        <ele>1845.5</ele>
        <time>2025-01-26T13:25:30Z</time>
      </trkpt>
      <trkpt lat="42.95671" lon="0.19318">
        <ele>1847.4</ele>
        <time>2025-01-26T13:25:30Z</time>
      </trkpt>
      <trkpt lat="42.95631" lon="0.19245">
        <ele>1860.8</ele>
        <time>2025-01-26T13:25:30Z</time>
      </trkpt>
      <trkpt lat="42.95627" lon="0.19209">
        <ele>1861</ele>
        <time>2025-01-26T13:25:30Z</time>
      </trkpt>
      <trkpt lat="42.95573" lon="0.19116">
        <ele>1886.4</ele>
        <time>2025-01-26T13:25:30Z</time>
      </trkpt>
      <trkpt lat="42.95559" lon="0.19078">
        <ele>1895.4</ele>
        <time>2025-01-26T13:25:30Z</time>
      </trkpt>
      <trkpt lat="42.95532" lon="0.19061">
        <ele>1904</ele>
        <time>2025-01-26T13:25:30Z</time>
      </trkpt>
      <trkpt lat="42.95517" lon="0.19024">
        <ele>1909.7</ele>
        <time>2025-01-26T13:25:30Z</time>
      </trkpt>
      <trkpt lat="42.95488" lon="0.18996">
        <ele>1913.9</ele>
        <time>2025-01-26T13:25:30Z</time>
      </trkpt>
      <trkpt lat="42.9549" lon="0.1896">
        <ele>1925.4</ele>
        <time>2025-01-26T13:25:30Z</time>
      </trkpt>
      <trkpt lat="42.95492" lon="0.18923">
        <ele>1938.8</ele>
        <time>2025-01-26T13:25:30Z</time>
      </trkpt>
      <trkpt lat="42.95515" lon="0.18887">
        <ele>1943.6</ele>
        <time>2025-01-26T13:25:30Z</time>
      </trkpt>
      <trkpt lat="42.95488" lon="0.18889">
        <ele>1952.5</ele>
        <time>2025-01-26T13:25:30Z</time>
      </trkpt>
      <trkpt lat="42.95479" lon="0.18814">
        <ele>1984.4</ele>
        <time>2025-01-26T13:25:30Z</time>
      </trkpt>
      <trkpt lat="42.95451" lon="0.1881">
        <ele>1994.3</ele>
        <time>2025-01-26T13:25:30Z</time>
      </trkpt>
      <trkpt lat="42.95471" lon="0.18773">
        <ele>1999.5</ele>
        <time>2025-01-26T13:25:30Z</time>
      </trkpt>
      <trkpt lat="42.95462" lon="0.18737">
        <ele>2012.9</ele>
        <time>2025-01-26T13:25:30Z</time>
      </trkpt>
      <trkpt lat="42.95435" lon="0.18743">
        <ele>2023.2</ele>
        <time>2025-01-26T13:25:30Z</time>
      </trkpt>
      <trkpt lat="42.95408" lon="0.18741">
        <ele>2030.6</ele>
        <time>2025-01-26T13:25:30Z</time>
      </trkpt>
      <trkpt lat="42.95432" lon="0.18668">
        <ele>2042.6</ele>
        <time>2025-01-26T13:25:30Z</time>
      </trkpt>
      <trkpt lat="42.95427" lon="0.18629">
        <ele>2051.8</ele>
        <time>2025-01-26T13:25:30Z</time>
      </trkpt>
      <trkpt lat="42.95382" lon="0.18589">
        <ele>2076.2</ele>
        <time>2025-01-26T13:25:30Z</time>
      </trkpt>
      <trkpt lat="42.95386" lon="0.18558">
        <ele>2071</ele>
        <time>2025-01-26T13:25:30Z</time>
      </trkpt>
      <trkpt lat="42.9536" lon="0.18567">
        <ele>2084.9</ele>
        <time>2025-01-26T13:25:30Z</time>
      </trkpt>
      <trkpt lat="42.95333" lon="0.18569">
        <ele>2093.7</ele>
        <time>2025-01-26T13:25:30Z</time>
      </trkpt>
      <trkpt lat="42.95306" lon="0.18584">
        <ele>2092.6</ele>
        <time>2025-01-26T13:25:30Z</time>
      </trkpt>
      <trkpt lat="42.9528" lon="0.18561">
        <ele>2107.3</ele>
        <time>2025-01-26T13:25:30Z</time>
      </trkpt>
      <trkpt lat="42.95276" lon="0.18524">
        <ele>2128.7</ele>
        <time>2025-01-26T13:25:30Z</time>
      </trkpt>
      <trkpt lat="42.95248" lon="0.18505">
        <ele>2140.7</ele>
        <time>2025-01-26T13:25:30Z</time>
      </trkpt>
      <trkpt lat="42.95228" lon="0.18432">
        <ele>2164.2</ele>
        <time>2025-01-26T13:25:30Z</time>
      </trkpt>
      <trkpt lat="42.95206" lon="0.18395">
        <ele>2167.7</ele>
        <time>2025-01-26T13:25:30Z</time>
      </trkpt>
      <trkpt lat="42.95178" lon="0.18391">
        <ele>2185.8</ele>
        <time>2025-01-26T13:25:30Z</time>
      </trkpt>
      <trkpt lat="42.95123" lon="0.18419">
        <ele>2209.3</ele>
        <time>2025-01-26T13:25:30Z</time>
      </trkpt>
      <trkpt lat="42.9511" lon="0.18455">
        <ele>2203.8</ele>
        <time>2025-01-26T13:25:30Z</time>
      </trkpt>
      <trkpt lat="42.95083" lon="0.1844">
        <ele>2221.2</ele>
        <time>2025-01-26T13:25:30Z</time>
      </trkpt>
      <trkpt lat="42.95057" lon="0.18453">
        <ele>2226.2</ele>
        <time>2025-01-26T13:25:30Z</time>
      </trkpt>
      <trkpt lat="42.95024" lon="0.18464">
        <ele>2229.9</ele>
        <time>2025-01-26T13:25:30Z</time>
      </trkpt>
      <trkpt lat="42.94997" lon="0.18434">
        <ele>2231.5</ele>
        <time>2025-01-26T13:25:30Z</time>
      </trkpt>
      <trkpt lat="42.94969" lon="0.18432">
        <ele>2225.3</ele>
        <time>2025-01-26T13:25:30Z</time>
      </trkpt>
      <trkpt lat="42.9494" lon="0.18438">
        <ele>2219.8</ele>
        <time>2025-01-26T13:25:30Z</time>
      </trkpt>
      <trkpt lat="42.94914" lon="0.18413">
        <ele>2213.2</ele>
        <time>2025-01-26T13:25:30Z</time>
      </trkpt>
      <trkpt lat="42.94887" lon="0.18434">
        <ele>2211.8</ele>
        <time>2025-01-26T13:25:30Z</time>
      </trkpt>
      <trkpt lat="42.9486" lon="0.18425">
        <ele>2209.5</ele>
        <time>2025-01-26T13:25:30Z</time>
      </trkpt>
      <trkpt lat="42.94834" lon="0.18436">
        <ele>2204.3</ele>
        <time>2025-01-26T13:25:30Z</time>
      </trkpt>
      <trkpt lat="42.94807" lon="0.18436">
        <ele>2203.3</ele>
        <time>2025-01-26T13:25:30Z</time>
      </trkpt>
      <trkpt lat="42.9478" lon="0.18428">
        <ele>2204.1</ele>
        <time>2025-01-26T13:25:30Z</time>
      </trkpt>
      <trkpt lat="42.94763" lon="0.18389">
        <ele>2203.2</ele>
        <time>2025-01-26T13:25:30Z</time>
      </trkpt>
      <trkpt lat="42.94708" lon="0.18376">
        <ele>2225.1</ele>
        <time>2025-01-26T13:25:30Z</time>
      </trkpt>
      <trkpt lat="42.94628" lon="0.1838">
        <ele>2243.1</ele>
        <time>2025-01-26T13:25:30Z</time>
      </trkpt>
      <trkpt lat="42.94612" lon="0.18301">
        <ele>2267.2</ele>
        <time>2025-01-26T13:25:30Z</time>
      </trkpt>
      <trkpt lat="42.94585" lon="0.18267">
        <ele>2249.6</ele>
        <time>2025-01-26T13:25:30Z</time>
      </trkpt>
      <trkpt lat="42.94559" lon="0.18247">
        <ele>2233.4</ele>
        <time>2025-01-26T13:25:30Z</time>
      </trkpt>
      <trkpt lat="42.94541" lon="0.18174">
        <ele>2203.2</ele>
        <time>2025-01-26T13:25:30Z</time>
      </trkpt>
      <trkpt lat="42.94518" lon="0.18138">
        <ele>2188.7</ele>
        <time>2025-01-26T13:25:30Z</time>
      </trkpt>
      <trkpt lat="42.94516" lon="0.18099">
        <ele>2179.9</ele>
        <time>2025-01-26T13:25:30Z</time>
      </trkpt>
      <trkpt lat="42.9449" lon="0.18071">
        <ele>2177.6</ele>
        <time>2025-01-26T13:25:30Z</time>
      </trkpt>
      <trkpt lat="42.94468" lon="0.17996">
        <ele>2179.9</ele>
        <time>2025-01-26T13:25:30Z</time>
      </trkpt>
      <trkpt lat="42.94439" lon="0.17923">
        <ele>2202.5</ele>
        <time>2025-01-26T13:25:30Z</time>
      </trkpt>
      <trkpt lat="42.94425" lon="0.1785">
        <ele>2216.1</ele>
        <time>2025-01-26T13:25:30Z</time>
      </trkpt>
      <trkpt lat="42.94414" lon="0.17814">
        <ele>2222</ele>
        <time>2025-01-26T13:25:30Z</time>
      </trkpt>
      <trkpt lat="42.94406" lon="0.17739">
        <ele>2208.7</ele>
        <time>2025-01-26T13:25:30Z</time>
      </trkpt>
      <trkpt lat="42.94417" lon="0.17702">
        <ele>2201.2</ele>
        <time>2025-01-26T13:25:30Z</time>
      </trkpt>
      <trkpt lat="42.94491" lon="0.17608">
        <ele>2177.2</ele>
        <time>2025-01-26T13:25:30Z</time>
      </trkpt>
      <trkpt lat="42.94518" lon="0.17593">
        <ele>2164.6</ele>
        <time>2025-01-26T13:25:30Z</time>
      </trkpt>
      <trkpt lat="42.94527" lon="0.17556">
        <ele>2172.7</ele>
        <time>2025-01-26T13:25:30Z</time>
      </trkpt>
      <trkpt lat="42.94554" lon="0.17526">
        <ele>2172.4</ele>
        <time>2025-01-26T13:25:30Z</time>
      </trkpt>
      <trkpt lat="42.9456" lon="0.17488">
        <ele>2164.1</ele>
        <time>2025-01-26T13:25:30Z</time>
      </trkpt>
      <trkpt lat="42.94598" lon="0.17387">
        <ele>2154</ele>
        <time>2025-01-26T13:25:30Z</time>
      </trkpt>
      <trkpt lat="42.94612" lon="0.1735">
        <ele>2158</ele>
        <time>2025-01-26T13:25:30Z</time>
      </trkpt>
      <trkpt lat="42.9462" lon="0.17312">
        <ele>2157.2</ele>
        <time>2025-01-26T13:25:30Z</time>
      </trkpt>
      <trkpt lat="42.94647" lon="0.17284">
        <ele>2150.2</ele>
        <time>2025-01-26T13:25:30Z</time>
      </trkpt>
      <trkpt lat="42.9465" lon="0.17247">
        <ele>2151.9</ele>
        <time>2025-01-26T13:25:30Z</time>
      </trkpt>
      <trkpt lat="42.94664" lon="0.17211">
        <ele>2153.7</ele>
        <time>2025-01-26T13:25:30Z</time>
      </trkpt>
      <trkpt lat="42.94669" lon="0.17174">
        <ele>2161.8</ele>
        <time>2025-01-26T13:25:30Z</time>
      </trkpt>
      <trkpt lat="42.94692" lon="0.17138">
        <ele>2166.7</ele>
        <time>2025-01-26T13:25:30Z</time>
      </trkpt>
      <trkpt lat="42.94708" lon="0.17099">
        <ele>2178.2</ele>
        <time>2025-01-26T13:25:30Z</time>
      </trkpt>
      <trkpt lat="42.94735" lon="0.17069">
        <ele>2187.1</ele>
        <time>2025-01-26T13:25:30Z</time>
      </trkpt>
      <trkpt lat="42.94761" lon="0.1705">
        <ele>2194.7</ele>
        <time>2025-01-26T13:25:30Z</time>
      </trkpt>
      <trkpt lat="42.94788" lon="0.17046">
        <ele>2201.4</ele>
        <time>2025-01-26T13:25:30Z</time>
      </trkpt>
      <trkpt lat="42.94841" lon="0.1708">
        <ele>2208.3</ele>
        <time>2025-01-26T13:25:30Z</time>
      </trkpt>
      <trkpt lat="42.94863" lon="0.17117">
        <ele>2202.5</ele>
        <time>2025-01-26T13:25:30Z</time>
      </trkpt>
      <trkpt lat="42.9489" lon="0.17121">
        <ele>2213.9</ele>
        <time>2025-01-26T13:25:30Z</time>
      </trkpt>
      <trkpt lat="42.94945" lon="0.17159">
        <ele>2228.5</ele>
        <time>2025-01-26T13:25:30Z</time>
      </trkpt>
      <trkpt lat="42.94972" lon="0.17129">
        <ele>2239.7</ele>
        <time>2025-01-26T13:25:30Z</time>
      </trkpt>
      <trkpt lat="42.94983" lon="0.17093">
        <ele>2258.7</ele>
        <time>2025-01-26T13:25:30Z</time>
      </trkpt>
      <trkpt lat="42.95008" lon="0.17056">
        <ele>2275.1</ele>
        <time>2025-01-26T13:25:30Z</time>
      </trkpt>
      <trkpt lat="42.95031" lon="0.17003">
        <ele>2268.1</ele>
        <time>2025-01-26T13:25:30Z</time>
      </trkpt>
      <trkpt lat="42.95058" lon="0.16994">
        <ele>2260.7</ele>
        <time>2025-01-26T13:25:30Z</time>
      </trkpt>
      <trkpt lat="42.95052" lon="0.16958">
        <ele>2254.6</ele>
        <time>2025-01-26T13:25:30Z</time>
      </trkpt>
      <trkpt lat="42.95061" lon="0.16921">
        <ele>2242.7</ele>
        <time>2025-01-26T13:25:30Z</time>
      </trkpt>
      <trkpt lat="42.95042" lon="0.16694">
        <ele>2171.2</ele>
        <time>2025-01-26T13:25:30Z</time>
      </trkpt>
      <trkpt lat="42.95053" lon="0.16653">
        <ele>2169</ele>
        <time>2025-01-26T13:25:30Z</time>
      </trkpt>
      <trkpt lat="42.95053" lon="0.16572">
        <ele>2167.2</ele>
        <time>2025-01-26T13:25:30Z</time>
      </trkpt>
      <trkpt lat="42.95066" lon="0.16535">
        <ele>2168</ele>
        <time>2025-01-26T13:25:30Z</time>
      </trkpt>
      <trkpt lat="42.95066" lon="0.16496">
        <ele>2157</ele>
        <time>2025-01-26T13:25:30Z</time>
      </trkpt>
      <trkpt lat="42.95091" lon="0.16421">
        <ele>2161.9</ele>
        <time>2025-01-26T13:25:30Z</time>
      </trkpt>
      <trkpt lat="42.95096" lon="0.16385">
        <ele>2162.6</ele>
        <time>2025-01-26T13:25:30Z</time>
      </trkpt>
      <trkpt lat="42.95149" lon="0.16344">
        <ele>2187.1</ele>
        <time>2025-01-26T13:25:30Z</time>
      </trkpt>
      <trkpt lat="42.95167" lon="0.16305">
        <ele>2191.9</ele>
        <time>2025-01-26T13:25:30Z</time>
      </trkpt>
      <trkpt lat="42.95193" lon="0.16297">
        <ele>2199.3</ele>
        <time>2025-01-26T13:25:30Z</time>
      </trkpt>
      <trkpt lat="42.95198" lon="0.16258">
        <ele>2195.4</ele>
        <time>2025-01-26T13:25:30Z</time>
      </trkpt>
      <trkpt lat="42.95251" lon="0.16308">
        <ele>2219</ele>
        <time>2025-01-26T13:25:30Z</time>
      </trkpt>
      <trkpt lat="42.95291" lon="0.16282">
        <ele>2225.1</ele>
        <time>2025-01-26T13:25:30Z</time>
      </trkpt>
      <trkpt lat="42.95289" lon="0.16282">
        <ele>2225.4</ele>
        <time>2025-01-26T13:25:30Z</time>
      </trkpt>
      <trkpt lat="42.95291" lon="0.16197">
        <ele>2208.4</ele>
        <time>2025-01-26T13:25:30Z</time>
      </trkpt>
      <trkpt lat="42.95298" lon="0.16172">
        <ele>2204.8</ele>
        <time>2025-01-26T13:25:30Z</time>
      </trkpt>
      <trkpt lat="42.95311" lon="0.16145">
        <ele>2198.7</ele>
        <time>2025-01-26T13:25:30Z</time>
      </trkpt>
      <trkpt lat="42.95312" lon="0.16114">
        <ele>2197.9</ele>
        <time>2025-01-26T13:25:30Z</time>
      </trkpt>
      <trkpt lat="42.95311" lon="0.16093">
        <ele>2195.9</ele>
        <time>2025-01-26T13:25:30Z</time>
      </trkpt>
      <trkpt lat="42.9529" lon="0.16036">
        <ele>2186.2</ele>
        <time>2025-01-26T13:25:30Z</time>
      </trkpt>
      <trkpt lat="42.95283" lon="0.16026">
        <ele>2186.2</ele>
        <time>2025-01-26T13:25:30Z</time>
      </trkpt>
      <trkpt lat="42.95276" lon="0.16009">
        <ele>2184.1</ele>
        <time>2025-01-26T13:25:30Z</time>
      </trkpt>
      <trkpt lat="42.95265" lon="0.15996">
        <ele>2178.8</ele>
        <time>2025-01-26T13:25:30Z</time>
      </trkpt>
      <trkpt lat="42.95244" lon="0.15956">
        <ele>2166.5</ele>
        <time>2025-01-26T13:25:30Z</time>
      </trkpt>
      <trkpt lat="42.95227" lon="0.159">
        <ele>2154.1</ele>
        <time>2025-01-26T13:25:30Z</time>
      </trkpt>
      <trkpt lat="42.95221" lon="0.1589">
        <ele>2151.9</ele>
        <time>2025-01-26T13:25:30Z</time>
      </trkpt>
      <trkpt lat="42.95208" lon="0.15886">
        <ele>2147.2</ele>
        <time>2025-01-26T13:25:30Z</time>
      </trkpt>
      <trkpt lat="42.95204" lon="0.15865">
        <ele>2140.3</ele>
        <time>2025-01-26T13:25:30Z</time>
      </trkpt>
      <trkpt lat="42.95186" lon="0.15845">
        <ele>2132.2</ele>
        <time>2025-01-26T13:25:30Z</time>
      </trkpt>
      <trkpt lat="42.9518" lon="0.15834">
        <ele>2129.3</ele>
        <time>2025-01-26T13:25:30Z</time>
      </trkpt>
      <trkpt lat="42.95164" lon="0.15844">
        <ele>2125.8</ele>
        <time>2025-01-26T13:25:30Z</time>
      </trkpt>
      <trkpt lat="42.95144" lon="0.15868">
        <ele>2117.2</ele>
        <time>2025-01-26T13:25:30Z</time>
      </trkpt>
      <trkpt lat="42.95131" lon="0.15876">
        <ele>2112.6</ele>
        <time>2025-01-26T13:25:30Z</time>
      </trkpt>
      <trkpt lat="42.95113" lon="0.15877">
        <ele>2107</ele>
        <time>2025-01-26T13:25:30Z</time>
      </trkpt>
      <trkpt lat="42.95094" lon="0.15883">
        <ele>2102.1</ele>
        <time>2025-01-26T13:25:30Z</time>
      </trkpt>
      <trkpt lat="42.95087" lon="0.15892">
        <ele>2100.6</ele>
        <time>2025-01-26T13:25:30Z</time>
      </trkpt>
      <trkpt lat="42.9508" lon="0.15895">
        <ele>2097.9</ele>
        <time>2025-01-26T13:25:30Z</time>
      </trkpt>
      <trkpt lat="42.95078" lon="0.15878">
        <ele>2096.5</ele>
        <time>2025-01-26T13:25:30Z</time>
      </trkpt>
      <trkpt lat="42.95078" lon="0.15867">
        <ele>2097.2</ele>
        <time>2025-01-26T13:25:30Z</time>
      </trkpt>
      <trkpt lat="42.95071" lon="0.15857">
        <ele>2093.9</ele>
        <time>2025-01-26T13:25:30Z</time>
      </trkpt>
      <trkpt lat="42.95069" lon="0.15846">
        <ele>2094.6</ele>
        <time>2025-01-26T13:25:30Z</time>
      </trkpt>
      <trkpt lat="42.95054" lon="0.15821">
        <ele>2091.5</ele>
        <time>2025-01-26T13:25:30Z</time>
      </trkpt>
      <trkpt lat="42.9504" lon="0.15811">
        <ele>2088.1</ele>
        <time>2025-01-26T13:25:30Z</time>
      </trkpt>
      <trkpt lat="42.95017" lon="0.15798">
        <ele>2082.4</ele>
        <time>2025-01-26T13:25:30Z</time>
      </trkpt>
      <trkpt lat="42.94987" lon="0.1575">
        <ele>2087.8</ele>
        <time>2025-01-26T13:25:30Z</time>
      </trkpt>
      <trkpt lat="42.9498" lon="0.15745">
        <ele>2086.3</ele>
        <time>2025-01-26T13:25:30Z</time>
      </trkpt>
      <trkpt lat="42.94972" lon="0.15754">
        <ele>2082</ele>
        <time>2025-01-26T13:25:30Z</time>
      </trkpt>
      <trkpt lat="42.94965" lon="0.1578">
        <ele>2075.8</ele>
        <time>2025-01-26T13:25:30Z</time>
      </trkpt>
      <trkpt lat="42.94966" lon="0.15799">
        <ele>2071.7</ele>
        <time>2025-01-26T13:25:30Z</time>
      </trkpt>
      <trkpt lat="42.94969" lon="0.15809">
        <ele>2069.7</ele>
        <time>2025-01-26T13:25:30Z</time>
      </trkpt>
      <trkpt lat="42.94973" lon="0.15843">
        <ele>2064.9</ele>
        <time>2025-01-26T13:25:30Z</time>
      </trkpt>
      <trkpt lat="42.94969" lon="0.15887">
        <ele>2057.9</ele>
        <time>2025-01-26T13:25:30Z</time>
      </trkpt>
      <trkpt lat="42.94962" lon="0.15897">
        <ele>2054.8</ele>
        <time>2025-01-26T13:25:30Z</time>
      </trkpt>
      <trkpt lat="42.94934" lon="0.15902">
        <ele>2049.8</ele>
        <time>2025-01-26T13:25:30Z</time>
      </trkpt>
      <trkpt lat="42.94895" lon="0.1592">
        <ele>2041.3</ele>
        <time>2025-01-26T13:25:30Z</time>
      </trkpt>
      <trkpt lat="42.94864" lon="0.15893">
        <ele>2034.9</ele>
        <time>2025-01-26T13:25:30Z</time>
      </trkpt>
      <trkpt lat="42.94822" lon="0.15889">
        <ele>2025.4</ele>
        <time>2025-01-26T13:25:30Z</time>
      </trkpt>
      <trkpt lat="42.948" lon="0.15882">
        <ele>2022.5</ele>
        <time>2025-01-26T13:25:30Z</time>
      </trkpt>
      <trkpt lat="42.94783" lon="0.15884">
        <ele>2022.6</ele>
        <time>2025-01-26T13:25:30Z</time>
      </trkpt>
      <trkpt lat="42.94747" lon="0.15914">
        <ele>2023.3</ele>
        <time>2025-01-26T13:25:30Z</time>
      </trkpt>
      <trkpt lat="42.94722" lon="0.15922">
        <ele>2018.4</ele>
        <time>2025-01-26T13:25:30Z</time>
      </trkpt>
      <trkpt lat="42.94709" lon="0.15931">
        <ele>2015.2</ele>
        <time>2025-01-26T13:25:30Z</time>
      </trkpt>
      <trkpt lat="42.94696" lon="0.15964">
        <ele>2009.2</ele>
        <time>2025-01-26T13:25:30Z</time>
      </trkpt>
      <trkpt lat="42.94694" lon="0.15974">
        <ele>2008.1</ele>
        <time>2025-01-26T13:25:30Z</time>
      </trkpt>
      <trkpt lat="42.94668" lon="0.15997">
        <ele>2003.2</ele>
        <time>2025-01-26T13:25:30Z</time>
      </trkpt>
      <trkpt lat="42.94656" lon="0.16001">
        <ele>2001.1</ele>
        <time>2025-01-26T13:25:30Z</time>
      </trkpt>
      <trkpt lat="42.94638" lon="0.16001">
        <ele>1997.9</ele>
        <time>2025-01-26T13:25:30Z</time>
      </trkpt>
      <trkpt lat="42.9463" lon="0.15998">
        <ele>1995.8</ele>
        <time>2025-01-26T13:25:30Z</time>
      </trkpt>
      <trkpt lat="42.94622" lon="0.16006">
        <ele>1993.1</ele>
        <time>2025-01-26T13:25:30Z</time>
      </trkpt>
      <trkpt lat="42.94602" lon="0.16082">
        <ele>1975.1</ele>
        <time>2025-01-26T13:25:30Z</time>
      </trkpt>
      <trkpt lat="42.94594" lon="0.1609">
        <ele>1972.7</ele>
        <time>2025-01-26T13:25:30Z</time>
      </trkpt>
      <trkpt lat="42.94577" lon="0.16082">
        <ele>1963.9</ele>
        <time>2025-01-26T13:25:30Z</time>
      </trkpt>
      <trkpt lat="42.94534" lon="0.16091">
        <ele>1945.8</ele>
        <time>2025-01-26T13:25:30Z</time>
      </trkpt>
      <trkpt lat="42.94503" lon="0.16103">
        <ele>1934.8</ele>
        <time>2025-01-26T13:25:30Z</time>
      </trkpt>
      <trkpt lat="42.94493" lon="0.161">
        <ele>1931.3</ele>
        <time>2025-01-26T13:25:30Z</time>
      </trkpt>
      <trkpt lat="42.94486" lon="0.16104">
        <ele>1929</ele>
        <time>2025-01-26T13:25:30Z</time>
      </trkpt>
      <trkpt lat="42.94486" lon="0.16103">
        <ele>1928.7</ele>
        <time>2025-01-26T13:25:30Z</time>
      </trkpt>
      <trkpt lat="42.94449" lon="0.16101">
        <ele>1916.3</ele>
        <time>2025-01-26T13:25:30Z</time>
      </trkpt>
      <trkpt lat="42.9444" lon="0.16094">
        <ele>1914.3</ele>
        <time>2025-01-26T13:25:30Z</time>
      </trkpt>
      <trkpt lat="42.94432" lon="0.16091">
        <ele>1912.9</ele>
        <time>2025-01-26T13:25:30Z</time>
      </trkpt>
      <trkpt lat="42.94419" lon="0.16092">
        <ele>1910.8</ele>
        <time>2025-01-26T13:25:30Z</time>
      </trkpt>
      <trkpt lat="42.94402" lon="0.16112">
        <ele>1908.9</ele>
        <time>2025-01-26T13:25:30Z</time>
      </trkpt>
      <trkpt lat="42.94392" lon="0.16144">
        <ele>1904.7</ele>
        <time>2025-01-26T13:25:30Z</time>
      </trkpt>
      <trkpt lat="42.94364" lon="0.16178">
        <ele>1900.2</ele>
        <time>2025-01-26T13:25:30Z</time>
      </trkpt>
      <trkpt lat="42.94332" lon="0.16234">
        <ele>1897.3</ele>
        <time>2025-01-26T13:25:30Z</time>
      </trkpt>
      <trkpt lat="42.94319" lon="0.16225">
        <ele>1896.4</ele>
        <time>2025-01-26T13:25:30Z</time>
      </trkpt>
      <trkpt lat="42.94311" lon="0.16224">
        <ele>1896.3</ele>
        <time>2025-01-26T13:25:30Z</time>
      </trkpt>
      <trkpt lat="42.94301" lon="0.16229">
        <ele>1896.8</ele>
        <time>2025-01-26T13:25:30Z</time>
      </trkpt>
      <trkpt lat="42.94285" lon="0.16214">
        <ele>1892.5</ele>
        <time>2025-01-26T13:25:30Z</time>
      </trkpt>
      <trkpt lat="42.94264" lon="0.16211">
        <ele>1887.6</ele>
        <time>2025-01-26T13:25:30Z</time>
      </trkpt>
      <trkpt lat="42.94251" lon="0.16214">
        <ele>1885.1</ele>
        <time>2025-01-26T13:25:30Z</time>
      </trkpt>
      <trkpt lat="42.94199" lon="0.16239">
        <ele>1872.6</ele>
        <time>2025-01-26T13:25:30Z</time>
      </trkpt>
      <trkpt lat="42.94172" lon="0.16242">
        <ele>1864</ele>
        <time>2025-01-26T13:25:30Z</time>
      </trkpt>
      <trkpt lat="42.94161" lon="0.16238">
        <ele>1860.5</ele>
        <time>2025-01-26T13:25:30Z</time>
      </trkpt>
      <trkpt lat="42.94154" lon="0.16231">
        <ele>1858.5</ele>
        <time>2025-01-26T13:25:30Z</time>
      </trkpt>
      <trkpt lat="42.94061" lon="0.16192">
        <ele>1839.6</ele>
        <time>2025-01-26T13:25:30Z</time>
      </trkpt>
      <trkpt lat="42.94027" lon="0.16188">
        <ele>1832</ele>
        <time>2025-01-26T13:25:30Z</time>
      </trkpt>
      <trkpt lat="42.93993" lon="0.16204">
        <ele>1820.7</ele>
        <time>2025-01-26T13:25:30Z</time>
      </trkpt>
      <trkpt lat="42.93932" lon="0.16206">
        <ele>1802.5</ele>
        <time>2025-01-26T13:25:30Z</time>
      </trkpt>
      <trkpt lat="42.93897" lon="0.16218">
        <ele>1794.5</ele>
        <time>2025-01-26T13:25:30Z</time>
      </trkpt>
      <trkpt lat="42.93821" lon="0.16215">
        <ele>1773.2</ele>
        <time>2025-01-26T13:25:30Z</time>
      </trkpt>
      <trkpt lat="42.9371" lon="0.16279">
        <ele>1746.3</ele>
        <time>2025-01-26T13:25:30Z</time>
      </trkpt>
      <trkpt lat="42.93692" lon="0.16282">
        <ele>1740.7</ele>
        <time>2025-01-26T13:25:30Z</time>
      </trkpt>
      <trkpt lat="42.93581" lon="0.16352">
        <ele>1721.1</ele>
        <time>2025-01-26T13:25:30Z</time>
      </trkpt>
      <trkpt lat="42.93569" lon="0.16366">
        <ele>1715.4</ele>
        <time>2025-01-26T13:25:30Z</time>
      </trkpt>
      <trkpt lat="42.93561" lon="0.16381">
        <ele>1712.4</ele>
        <time>2025-01-26T13:25:30Z</time>
      </trkpt>
      <trkpt lat="42.93552" lon="0.16419">
        <ele>1708.8</ele>
        <time>2025-01-26T13:25:30Z</time>
      </trkpt>
      <trkpt lat="42.9355" lon="0.16436">
        <ele>1710.6</ele>
        <time>2025-01-26T13:25:30Z</time>
      </trkpt>
      <trkpt lat="42.93533" lon="0.16452">
        <ele>1705</ele>
        <time>2025-01-26T13:25:30Z</time>
      </trkpt>
      <trkpt lat="42.93516" lon="0.16483">
        <ele>1704.5</ele>
        <time>2025-01-26T13:25:30Z</time>
      </trkpt>
      <trkpt lat="42.93459" lon="0.16543">
        <ele>1693.8</ele>
        <time>2025-01-26T13:25:30Z</time>
      </trkpt>
      <trkpt lat="42.93441" lon="0.16589">
        <ele>1691.9</ele>
        <time>2025-01-26T13:25:30Z</time>
      </trkpt>
      <trkpt lat="42.93412" lon="0.16626">
        <ele>1685.3</ele>
        <time>2025-01-26T13:25:30Z</time>
      </trkpt>
      <trkpt lat="42.93397" lon="0.16659">
        <ele>1683.3</ele>
        <time>2025-01-26T13:25:30Z</time>
      </trkpt>
      <trkpt lat="42.93386" lon="0.16671">
        <ele>1678.8</ele>
        <time>2025-01-26T13:25:30Z</time>
      </trkpt>
      <trkpt lat="42.93356" lon="0.16749">
        <ele>1672.3</ele>
        <time>2025-01-26T13:25:30Z</time>
      </trkpt>
      <trkpt lat="42.93337" lon="0.16786">
        <ele>1667.3</ele>
        <time>2025-01-26T13:25:30Z</time>
      </trkpt>
      <trkpt lat="42.93319" lon="0.16805">
        <ele>1663.3</ele>
        <time>2025-01-26T13:25:30Z</time>
      </trkpt>
      <trkpt lat="42.93296" lon="0.16853">
        <ele>1659</ele>
        <time>2025-01-26T13:25:30Z</time>
      </trkpt>
      <trkpt lat="42.93282" lon="0.16909">
        <ele>1653.3</ele>
        <time>2025-01-26T13:25:30Z</time>
      </trkpt>
      <trkpt lat="42.93276" lon="0.16955">
        <ele>1643.7</ele>
        <time>2025-01-26T13:25:30Z</time>
      </trkpt>
      <trkpt lat="42.93277" lon="0.16968">
        <ele>1642.4</ele>
        <time>2025-01-26T13:25:30Z</time>
      </trkpt>
      <trkpt lat="42.93276" lon="0.16983">
        <ele>1640.4</ele>
        <time>2025-01-26T13:25:30Z</time>
      </trkpt>
      <trkpt lat="42.9327" lon="0.17012">
        <ele>1634.5</ele>
        <time>2025-01-26T13:25:30Z</time>
      </trkpt>
      <trkpt lat="42.93268" lon="0.17134">
        <ele>1621.8</ele>
        <time>2025-01-26T13:25:30Z</time>
      </trkpt>
      <trkpt lat="42.93238" lon="0.17297">
        <ele>1609.2</ele>
        <time>2025-01-26T13:25:30Z</time>
      </trkpt>
      <trkpt lat="42.93207" lon="0.17359">
        <ele>1606.2</ele>
        <time>2025-01-26T13:25:30Z</time>
      </trkpt>
      <trkpt lat="42.93189" lon="0.17459">
        <ele>1601.4</ele>
        <time>2025-01-26T13:25:30Z</time>
      </trkpt>
      <trkpt lat="42.93185" lon="0.1747">
        <ele>1600.5</ele>
        <time>2025-01-26T13:25:30Z</time>
      </trkpt>
      <trkpt lat="42.93184" lon="0.1748">
        <ele>1600.2</ele>
        <time>2025-01-26T13:25:30Z</time>
      </trkpt>
      <trkpt lat="42.93186" lon="0.17493">
        <ele>1600.9</ele>
        <time>2025-01-26T13:25:30Z</time>
      </trkpt>
      <trkpt lat="42.93178" lon="0.17505">
        <ele>1598.8</ele>
        <time>2025-01-26T13:25:30Z</time>
      </trkpt>
      <trkpt lat="42.93178" lon="0.17507">
        <ele>1598.8</ele>
        <time>2025-01-26T13:25:30Z</time>
      </trkpt>
      <trkpt lat="42.93179" lon="0.17507">
        <ele>1599</ele>
        <time>2025-01-26T13:25:30Z</time>
      </trkpt>
      <trkpt lat="42.93183" lon="0.17516">
        <ele>1600</ele>
        <time>2025-01-26T13:25:30Z</time>
      </trkpt>
      <trkpt lat="42.93182" lon="0.17516">
        <ele>1599.8</ele>
        <time>2025-01-26T13:25:30Z</time>
      </trkpt>
      <trkpt lat="42.93182" lon="0.17533">
        <ele>1600.2</ele>
        <time>2025-01-26T13:25:30Z</time>
      </trkpt>
      <trkpt lat="42.93166" lon="0.17544">
        <ele>1597.6</ele>
        <time>2025-01-26T13:25:30Z</time>
      </trkpt>
      <trkpt lat="42.93161" lon="0.17556">
        <ele>1597.2</ele>
        <time>2025-01-26T13:25:30Z</time>
      </trkpt>
      <trkpt lat="42.93133" lon="0.17652">
        <ele>1594.2</ele>
        <time>2025-01-26T13:25:30Z</time>
      </trkpt>
      <trkpt lat="42.93067" lon="0.17794">
        <ele>1581.9</ele>
        <time>2025-01-26T13:25:30Z</time>
      </trkpt>
      <trkpt lat="42.93016" lon="0.17864">
        <ele>1572.9</ele>
        <time>2025-01-26T13:25:30Z</time>
      </trkpt>
      <trkpt lat="42.92963" lon="0.17994">
        <ele>1563.3</ele>
        <time>2025-01-26T13:25:30Z</time>
      </trkpt>
      <trkpt lat="42.92962" lon="0.18006">
        <ele>1563.1</ele>
        <time>2025-01-26T13:25:30Z</time>
      </trkpt>
      <trkpt lat="42.92964" lon="0.18042">
        <ele>1564.1</ele>
        <time>2025-01-26T13:25:30Z</time>
      </trkpt>
      <trkpt lat="42.92962" lon="0.18053">
        <ele>1564.3</ele>
        <time>2025-01-26T13:25:30Z</time>
      </trkpt>
      <trkpt lat="42.92957" lon="0.18066">
        <ele>1564.6</ele>
        <time>2025-01-26T13:25:30Z</time>
      </trkpt>
      <trkpt lat="42.92926" lon="0.18113">
        <ele>1563.3</ele>
        <time>2025-01-26T13:25:30Z</time>
      </trkpt>
      <trkpt lat="42.92923" lon="0.18123">
        <ele>1565.8</ele>
        <time>2025-01-26T13:25:30Z</time>
      </trkpt>
      <trkpt lat="42.92897" lon="0.18138">
        <ele>1561</ele>
        <time>2025-01-26T13:25:30Z</time>
      </trkpt>
      <trkpt lat="42.92843" lon="0.18224">
        <ele>1556.9</ele>
        <time>2025-01-26T13:25:30Z</time>
      </trkpt>
      <trkpt lat="42.9283" lon="0.18257">
        <ele>1555.1</ele>
        <time>2025-01-26T13:25:30Z</time>
      </trkpt>
      <trkpt lat="42.92812" lon="0.18283">
        <ele>1551.1</ele>
        <time>2025-01-26T13:25:30Z</time>
      </trkpt>
      <trkpt lat="42.9278" lon="0.18408">
        <ele>1539.6</ele>
        <time>2025-01-26T13:25:30Z</time>
      </trkpt>
      <trkpt lat="42.9276" lon="0.18433">
        <ele>1535</ele>
        <time>2025-01-26T13:25:30Z</time>
      </trkpt>
      <trkpt lat="42.92707" lon="0.18466">
        <ele>1522.2</ele>
        <time>2025-01-26T13:25:30Z</time>
      </trkpt>
      <trkpt lat="42.92686" lon="0.18495">
        <ele>1519.7</ele>
        <time>2025-01-26T13:25:30Z</time>
      </trkpt>
      <trkpt lat="42.92629" lon="0.186">
        <ele>1495.2</ele>
        <time>2025-01-26T13:25:30Z</time>
      </trkpt>
      <trkpt lat="42.92589" lon="0.18835">
        <ele>1465</ele>
        <time>2025-01-26T13:25:30Z</time>
      </trkpt>
      <trkpt lat="42.92609" lon="0.18926">
        <ele>1452.3</ele>
        <time>2025-01-26T13:25:30Z</time>
      </trkpt>
      <trkpt lat="42.92605" lon="0.19002">
        <ele>1443.7</ele>
        <time>2025-01-26T13:25:30Z</time>
      </trkpt>
      <trkpt lat="42.92597" lon="0.19034">
        <ele>1440.5</ele>
        <time>2025-01-26T13:25:30Z</time>
      </trkpt>
      <trkpt lat="42.92575" lon="0.19094">
        <ele>1429.8</ele>
        <time>2025-01-26T13:25:30Z</time>
      </trkpt>
      <trkpt lat="42.92546" lon="0.19214">
        <ele>1418.5</ele>
        <time>2025-01-26T13:25:30Z</time>
      </trkpt>
      <trkpt lat="42.92527" lon="0.1923">
        <ele>1412.7</ele>
        <time>2025-01-26T13:25:30Z</time>
      </trkpt>
      <trkpt lat="42.92528" lon="0.19231">
        <ele>1412.8</ele>
        <time>2025-01-26T13:25:30Z</time>
      </trkpt>
      <trkpt lat="42.92534" lon="0.19247">
        <ele>1413.5</ele>
        <time>2025-01-26T13:25:30Z</time>
      </trkpt>
      <trkpt lat="42.92536" lon="0.19287">
        <ele>1410.6</ele>
        <time>2025-01-26T13:25:30Z</time>
      </trkpt>
      <trkpt lat="42.92546" lon="0.19301">
        <ele>1408.8</ele>
        <time>2025-01-26T13:25:30Z</time>
      </trkpt>
      <trkpt lat="42.92566" lon="0.19314">
        <ele>1406.4</ele>
        <time>2025-01-26T13:25:30Z</time>
      </trkpt>
      <trkpt lat="42.92574" lon="0.19318">
        <ele>1405.7</ele>
        <time>2025-01-26T13:25:30Z</time>
      </trkpt>
      <trkpt lat="42.92611" lon="0.1932">
        <ele>1407.1</ele>
        <time>2025-01-26T13:25:30Z</time>
      </trkpt>
      <trkpt lat="42.92621" lon="0.19326">
        <ele>1406.2</ele>
        <time>2025-01-26T13:25:30Z</time>
      </trkpt>
      <trkpt lat="42.92626" lon="0.19333">
        <ele>1403.9</ele>
        <time>2025-01-26T13:25:30Z</time>
      </trkpt>
      <trkpt lat="42.92666" lon="0.19426">
        <ele>1393.7</ele>
        <time>2025-01-26T13:25:30Z</time>
      </trkpt>
      <trkpt lat="42.9268" lon="0.19483">
        <ele>1383.4</ele>
        <time>2025-01-26T13:25:30Z</time>
      </trkpt>
      <trkpt lat="42.92686" lon="0.19491">
        <ele>1382</ele>
        <time>2025-01-26T13:25:30Z</time>
      </trkpt>
      <trkpt lat="42.92699" lon="0.19493">
        <ele>1384.8</ele>
        <time>2025-01-26T13:25:30Z</time>
      </trkpt>
      <trkpt lat="42.92714" lon="0.19508">
        <ele>1384.5</ele>
        <time>2025-01-26T13:25:30Z</time>
      </trkpt>
      <trkpt lat="42.92726" lon="0.19525">
        <ele>1383.5</ele>
        <time>2025-01-26T13:25:30Z</time>
      </trkpt>
      <trkpt lat="42.92728" lon="0.19559">
        <ele>1375.3</ele>
        <time>2025-01-26T13:25:30Z</time>
      </trkpt>
      <trkpt lat="42.92749" lon="0.19622">
        <ele>1367.9</ele>
        <time>2025-01-26T13:25:30Z</time>
      </trkpt>
      <trkpt lat="42.92765" lon="0.19646">
        <ele>1360</ele>
        <time>2025-01-26T13:25:30Z</time>
      </trkpt>
      <trkpt lat="42.92776" lon="0.19648">
        <ele>1359.5</ele>
        <time>2025-01-26T13:25:30Z</time>
      </trkpt>
      <trkpt lat="42.92809" lon="0.19642">
        <ele>1362.5</ele>
        <time>2025-01-26T13:25:30Z</time>
      </trkpt>
      <trkpt lat="42.92817" lon="0.19644">
        <ele>1364.6</ele>
        <time>2025-01-26T13:25:30Z</time>
      </trkpt>
      <trkpt lat="42.92823" lon="0.19654">
        <ele>1362.9</ele>
        <time>2025-01-26T13:25:30Z</time>
      </trkpt>
      <trkpt lat="42.92819" lon="0.19703">
        <ele>1351.7</ele>
        <time>2025-01-26T13:25:30Z</time>
      </trkpt>
      <trkpt lat="42.92823" lon="0.1972">
        <ele>1353.3</ele>
        <time>2025-01-26T13:25:30Z</time>
      </trkpt>
      <trkpt lat="42.92823" lon="0.19732">
        <ele>1353.5</ele>
        <time>2025-01-26T13:25:30Z</time>
      </trkpt>
      <trkpt lat="42.92821" lon="0.19745">
        <ele>1351.9</ele>
        <time>2025-01-26T13:25:30Z</time>
      </trkpt>
      <trkpt lat="42.92807" lon="0.19775">
        <ele>1340.4</ele>
        <time>2025-01-26T13:25:30Z</time>
      </trkpt>
      <trkpt lat="42.92806" lon="0.1979">
        <ele>1338</ele>
        <time>2025-01-26T13:25:30Z</time>
      </trkpt>
      <trkpt lat="42.92865" lon="0.19933">
        <ele>1323.5</ele>
        <time>2025-01-26T13:25:30Z</time>
      </trkpt>
      <trkpt lat="42.92944" lon="0.20038">
        <ele>1301.3</ele>
        <time>2025-01-26T13:25:30Z</time>
      </trkpt>
      <trkpt lat="42.93098" lon="0.2017">
        <ele>1277.8</ele>
        <time>2025-01-26T13:25:30Z</time>
      </trkpt>
      <trkpt lat="42.93176" lon="0.20265">
        <ele>1261.6</ele>
        <time>2025-01-26T13:25:30Z</time>
      </trkpt>
      <trkpt lat="42.93223" lon="0.20299">
        <ele>1257.1</ele>
        <time>2025-01-26T13:25:30Z</time>
      </trkpt>
      <trkpt lat="42.93223" lon="0.20299">
        <ele>1257.1</ele>
        <time>2025-01-26T13:25:30Z</time>
      </trkpt>
      <trkpt lat="42.93277" lon="0.20321">
        <ele>1260.2</ele>
        <time>2025-01-26T13:25:30Z</time>
      </trkpt>
      <trkpt lat="42.93374" lon="0.20518">
        <ele>1207.9</ele>
        <time>2025-01-26T13:25:30Z</time>
      </trkpt>
      <trkpt lat="42.93412" lon="0.20574">
        <ele>1207.1</ele>
        <time>2025-01-26T13:25:30Z</time>
      </trkpt>
      <trkpt lat="42.93446" lon="0.20647">
        <ele>1199.4</ele>
        <time>2025-01-26T13:25:30Z</time>
      </trkpt>
      <trkpt lat="42.93503" lon="0.20707">
        <ele>1198.6</ele>
        <time>2025-01-26T13:25:30Z</time>
      </trkpt>
      <trkpt lat="42.93547" lon="0.20745">
        <ele>1198.4</ele>
        <time>2025-01-26T13:25:30Z</time>
      </trkpt>
      <trkpt lat="42.93578" lon="0.20784">
        <ele>1190.7</ele>
        <time>2025-01-26T13:25:30Z</time>
      </trkpt>
      <trkpt lat="42.936" lon="0.20823">
        <ele>1174.3</ele>
        <time>2025-01-26T13:25:30Z</time>
      </trkpt>
      <trkpt lat="42.93622" lon="0.2087">
        <ele>1155.9</ele>
        <time>2025-01-26T13:25:30Z</time>
      </trkpt>
      <trkpt lat="42.93622" lon="0.2087">
        <ele>1155.9</ele>
        <time>2025-01-26T13:25:30Z</time>
      </trkpt>
      <trkpt lat="42.93637" lon="0.2086">
        <ele>1159.4</ele>
        <time>2025-01-26T13:25:30Z</time>
      </trkpt>
      <trkpt lat="42.93645" lon="0.20861">
        <ele>1160.8</ele>
        <time>2025-01-26T13:25:30Z</time>
      </trkpt>
      <trkpt lat="42.93653" lon="0.2088">
        <ele>1157.4</ele>
        <time>2025-01-26T13:25:30Z</time>
      </trkpt>
      <trkpt lat="42.93657" lon="0.20921">
        <ele>1146.6</ele>
        <time>2025-01-26T13:25:30Z</time>
      </trkpt>
      <trkpt lat="42.93665" lon="0.20932">
        <ele>1145</ele>
        <time>2025-01-26T13:25:30Z</time>
      </trkpt>
      <trkpt lat="42.93685" lon="0.20946">
        <ele>1144.8</ele>
        <time>2025-01-26T13:25:30Z</time>
      </trkpt>
      <trkpt lat="42.93709" lon="0.20958">
        <ele>1148.4</ele>
        <time>2025-01-26T13:25:30Z</time>
      </trkpt>
      <trkpt lat="42.93721" lon="0.20969">
        <ele>1148.2</ele>
        <time>2025-01-26T13:25:30Z</time>
      </trkpt>
      <trkpt lat="42.9374" lon="0.20996">
        <ele>1148.3</ele>
        <time>2025-01-26T13:25:30Z</time>
      </trkpt>
      <trkpt lat="42.93756" lon="0.21025">
        <ele>1147.1</ele>
        <time>2025-01-26T13:25:30Z</time>
      </trkpt>
      <trkpt lat="42.93819" lon="0.211">
        <ele>1138.2</ele>
        <time>2025-01-26T13:25:30Z</time>
      </trkpt>
      <trkpt lat="42.93949" lon="0.21299">
        <ele>1121.9</ele>
        <time>2025-01-26T13:25:30Z</time>
      </trkpt>
      <trkpt lat="42.93983" lon="0.21326">
        <ele>1119.4</ele>
        <time>2025-01-26T13:25:30Z</time>
      </trkpt>
      <trkpt lat="42.94019" lon="0.21347">
        <ele>1119.6</ele>
        <time>2025-01-26T13:25:30Z</time>
      </trkpt>
      <trkpt lat="42.94059" lon="0.21394">
        <ele>1110</ele>
        <time>2025-01-26T13:25:30Z</time>
      </trkpt>
      <trkpt lat="42.94065" lon="0.21404">
        <ele>1107.1</ele>
        <time>2025-01-26T13:25:30Z</time>
      </trkpt>
      <trkpt lat="42.94144" lon="0.21504">
        <ele>1104.3</ele>
        <time>2025-01-26T13:25:30Z</time>
      </trkpt>
      <trkpt lat="42.94162" lon="0.21549">
        <ele>1095.3</ele>
        <time>2025-01-26T13:25:30Z</time>
      </trkpt>
    </trkseg>
  </trk>
</gpx>